Theta_e
325 331 322 321 324 323 326 324 323 324 327 326 329 336 341 341 345 348 338 336 336 335 334 333 332 335 334 330 329 328 327 322 322 322 322 322 322 322 321 320 320 321 321 322 322 321 321 320 320
325 327 322 323 327 327 324 322 324 327 328 327 326 332 338 342 337 339 338 336 336 335 335 333 334 335 331 329 329 328 323 319 321 321 321 321 321 320 319 319 320 320 320 321 321 320 320 319 319
327 327 321 328 324 322 323 322 326 325 325 327 328 329 336 340 337 339 338 335 334 334 334 334 335 334 330 329 328 326 318 316 319 319 320 319 319 319 318 318 319 319 320 320 321 319 320 320 320
330 331 329 333 328 319 320 321 325 324 324 325 329 337 335 337 338 338 336 335 335 336 336 335 335 331 329 328 326 322 313 314 315 317 317 317 317 317 317 317 317 318 318 319 320 321 321 320 320
329 333 334 327 329 317 317 319 322 325 324 324 325 337 338 337 338 337 337 336 336 336 336 335 332 329 327 327 324 315 310 310 311 310 309 310 312 315 314 316 317 318 318 319 320 320 320 320 319
333 330 338 330 327 317 317 317 319 324 323 324 331 335 337 337 339 336 337 337 335 335 334 332 330 329 327 325 319 311 309 310 310 310 310 311 311 310 312 314 316 317 318 319 319 319 319 318 318
335 337 339 330 322 317 317 317 319 322 322 324 325 337 337 337 338 338 337 335 333 333 332 330 327 324 323 320 314 310 310 311 311 312 311 312 312 312 311 311 311 313 315 316 317 317 317 318 318
325 333 332 329 321 320 316 317 317 319 325 326 327 335 338 336 338 335 333 332 331 330 329 328 325 321 320 315 311 310 312 314 314 314 312 312 312 312 313 312 312 314 316 317 318 318 318 319 319
323 333 335 329 322 316 316 317 318 326 329 326 325 325 322 336 336 334 332 330 329 328 326 326 323 320 315 313 314 314 315 315 315 313 313 313 314 314 315 315 316 316 317 318 318 318 318 318 319
327 334 335 320 315 315 316 316 316 323 330 329 326 319 322 332 335 335 334 333 330 328 326 325 323 319 313 314 315 315 315 315 314 311 313 314 315 315 315 316 316 316 316 317 318 318 318 317 318
324 330 320 315 316 314 316 315 316 320 320 318 321 319 318 318 320 321 322 326 330 328 326 324 319 315 315 314 315 315 315 314 313 313 314 314 314 314 314 315 314 315 315 316 317 318 318 317 317
324 323 318 317 314 314 315 316 316 316 316 318 317 317 317 317 316 316 318 322 327 328 325 321 316 315 314 315 315 315 314 313 312 313 314 314 313 312 312 312 313 314 314 315 317 317 318 317 318
320 317 318 315 313 313 315 316 316 316 316 317 317 318 318 317 316 316 316 318 324 326 323 319 316 314 314 315 315 314 312 312 313 313 313 312 311 311 311 312 312 313 313 314 316 316 317 317 317
319 318 318 316 315 314 315 314 316 315 315 317 319 318 316 316 315 317 317 318 321 323 320 317 315 314 315 315 314 312 312 312 313 312 312 311 311 311 311 311 311 312 312 313 315 316 316 316 317
318 319 317 317 315 315 314 316 317 313 315 316 317 314 313 312 312 313 314 315 314 317 314 314 314 314 315 314 312 312 312 312 313 312 311 310 310 311 311 311 311 312 312 312 313 314 315 315 316
319 320 324 318 315 313 315 322 315 313 315 316 315 314 313 311 311 311 312 312 311 312 312 312 313 314 314 313 313 312 312 313 312 311 310 310 310 310 311 311 311 311 312 312 313 313 313 314 315
321 326 322 321 317 315 315 322 315 313 314 316 315 314 313 312 311 310 310 310 310 310 310 312 313 314 313 313 313 312 312 311 310 309 309 310 310 311 311 311 312 311 311 312 313 314 313 312 314
325 325 323 324 319 318 318 316 315 313 314 315 315 314 313 312 311 309 308 308 309 309 310 311 312 314 313 313 313 312 311 310 309 308 309 309 309 310 310 310 311 311 311 311 312 314 313 311 312
320 325 326 323 321 321 321 320 318 314 313 314 315 314 313 311 310 309 308 308 308 308 309 311 312 313 313 314 313 311 310 309 308 308 308 308 308 308 308 308 309 309 308 307 307 311 310 310 311
319 323 323 324 320 319 320 320 320 317 314 314 315 314 313 310 308 309 308 308 308 308 308 309 310 312 312 312 311 311 309 308 307 306 305 305 306 306 306 307 306 306 306 305 305 306 308 308 306
319 321 321 323 319 316 316 319 318 317 315 314 314 314 313 311 309 308 308 308 307 306 306 306 308 309 310 310 310 309 308 307 306 304 303 302 302 302 303 303 303 303 303 303 303 304 303 304 305
320 317 316 318 321 324 318 325 322 319 318 315 314 314 313 311 310 308 307 307 305 303 304 304 305 306 309 309 309 309 309 307 304 302 302 300 299 299 299 300 299 300 299 300 301 299 301 298 298
317 315 316 319 319 321 321 322 320 320 320 317 314 313 313 311 309 308 306 306 303 302 303 303 303 304 306 307 308 308 306 304 302 301 301 298 297 296 296 295 296 296 296 297 295 296 295 293 291
315 315 316 317 317 320 319 319 319 319 320 319 315 312 312 311 309 307 306 303 302 301 301 301 301 301 302 304 305 305 304 302 301 301 299 296 294 293 292 292 292 292 293 294 292 292 290 290 289
315 316 318 320 320 320 317 320 319 317 317 316 316 312 311 310 308 305 302 301 300 300 301 300 299 298 299 300 301 301 301 300 299 298 297 294 292 290 289 289 290 289 290 292 291 289 286 287 288
315 315 318 321 324 319 316 318 317 315 310 308 309 312 310 309 306 303 301 300 300 300 299 298 297 296 296 297 297 297 297 297 296 294 293 291 289 288 287 287 288 287 287 289 289 288 285 285 286
315 316 314 315 313 317 315 315 313 309 308 309 309 311 310 307 304 301 300 300 298 298 297 296 295 294 294 294 294 293 293 293 292 291 290 288 287 286 286 286 286 286 286 286 285 285 284 284 284
314 314 316 315 316 320 315 315 316 314 311 307 309 310 308 305 302 300 299 297 296 295 295 294 293 292 291 291 290 290 289 290 290 289 288 287 286 285 285 285 285 284 284 285 284 283 283 282 282
314 314 315 313 314 318 317 314 309 313 312 307 307 308 306 304 300 297 296 295 293 292 291 291 290 289 288 288 288 287 287 287 287 286 286 285 285 285 284 284 283 283 283 283 282 282 281 281 281
312 313 315 316 316 314 315 315 310 308 309 308 306 306 304 301 298 295 294 292 290 289 289 288 288 288 287 287 286 286 285 285 285 285 285 285 284 284 284 283 282 282 282 282 281 281 281 280 280
Wind_Speed
8 7 12 5 1 2 3 4 6 6 4 3 7 11 17 13 7 9 9 9 17 18 13 9 10 10 11 11 11 11 11 12 14 14 14 14 15 15 15 16 15 15 14 14 14 15 15 15 15
4 6 4 1 2 3 3 8 4 10 8 8 9 7 11 8 8 12 9 12 16 14 14 9 10 11 10 10 10 10 10 12 13 14 14 15 15 15 16 16 16 15 14 14 14 15 15 15 15
5 7 2 2 2 4 2 6 11 9 4 3 4 10 6 7 12 5 14 16 14 15 15 11 12 11 9 10 10 10 10 12 13 14 15 15 15 15 15 15 14 14 14 14 15 15 15 16 16
1 2 3 1 2 6 7 8 11 8 6 3 12 8 6 16 4 10 15 16 17 16 13 13 13 10 9 9 9 9 10 12 13 14 15 15 14 14 14 14 14 14 15 14 15 15 17 17 17
1 1 3 3 1 3 7 9 7 6 8 7 5 7 6 5 11 17 17 15 16 18 17 15 11 9 8 9 8 9 10 12 13 15 16 16 15 14 13 13 13 13 14 14 16 17 18 18 18
2 2 3 4 4 4 8 7 6 3 12 9 12 8 4 2 8 15 16 19 16 17 15 13 9 7 7 8 8 9 11 12 14 16 16 15 18 16 14 13 13 13 14 15 16 17 18 19 20
2 2 2 4 7 4 5 5 7 3 11 7 8 6 4 3 8 13 21 18 16 15 13 11 9 7 7 7 8 9 11 12 14 16 17 17 17 17 18 14 13 13 15 16 17 20 21 19 20
4 3 3 2 3 5 3 3 7 10 10 4 9 5 5 3 10 21 21 17 15 13 11 10 9 7 6 8 9 10 12 15 17 17 17 15 14 12 16 18 17 17 18 20 20 22 22 20 19
3 2 4 5 4 5 6 2 6 10 8 6 6 6 6 11 12 14 16 14 12 11 9 9 8 5 6 8 11 11 13 13 13 14 13 13 13 17 13 18 17 18 19 18 20 20 19 19 17
2 2 4 4 3 4 7 8 6 3 10 9 6 11 15 9 7 11 11 10 9 8 7 8 5 4 7 6 9 9 8 9 12 14 14 13 12 14 14 14 14 15 17 15 16 17 18 18 16
5 4 7 3 3 2 5 4 5 7 7 6 5 6 10 12 12 13 12 13 9 6 7 7 5 6 4 8 7 8 8 9 10 14 13 13 12 13 10 9 13 13 15 16 18 18 19 18 15
1 5 6 3 2 2 3 6 6 9 5 4 7 8 6 8 8 7 8 7 7 6 8 7 5 5 7 6 7 8 9 8 11 13 13 13 12 12 16 16 12 13 15 15 17 18 17 16 15
3 5 9 7 8 5 6 7 6 6 8 6 9 8 6 8 6 6 6 5 6 9 9 6 6 6 7 7 7 8 8 10 10 12 14 14 15 15 14 14 14 13 15 15 17 18 16 15 13
2 5 6 2 6 4 4 2 2 3 6 6 7 8 7 9 8 7 7 6 6 8 11 8 7 7 6 8 7 7 8 9 10 13 13 14 13 13 14 15 15 15 15 14 15 16 17 16 12
2 4 4 3 2 3 4 2 2 9 8 8 8 7 6 7 8 9 8 10 4 5 9 11 8 7 7 7 8 9 8 10 10 10 11 12 13 12 13 14 15 16 16 15 14 16 16 16 13
3 4 2 4 3 1 2 4 7 8 8 8 8 7 7 6 5 5 5 5 3 5 7 8 7 7 7 8 7 8 9 9 9 9 10 10 11 11 11 13 14 14 15 15 14 15 18 16 11
1 2 1 1 6 3 5 5 5 6 6 7 7 7 6 6 8 7 6 6 5 5 6 8 8 6 8 8 8 9 9 8 9 9 8 9 10 11 11 12 13 15 15 15 16 15 18 18 13
4 2 4 4 7 7 6 7 5 7 7 8 9 8 6 6 5 8 8 8 7 6 6 6 7 6 7 8 8 9 6 7 7 8 9 9 9 9 10 11 12 14 15 15 14 16 17 23 14
2 6 5 5 4 2 12 12 9 10 8 8 8 8 8 7 8 10 9 9 10 8 7 5 3 5 5 5 5 8 7 6 6 7 7 9 9 10 10 11 13 14 17 18 20 16 17 24 17
2 5 5 2 4 2 7 12 12 9 12 13 10 9 8 8 7 11 10 10 9 11 8 7 5 4 4 5 8 6 6 5 6 7 9 10 11 11 11 11 14 14 16 20 21 20 17 18 27
4 4 4 3 4 3 5 10 12 11 9 10 9 11 10 13 11 9 13 12 11 9 10 8 7 6 4 6 7 9 8 7 6 6 8 11 12 13 14 15 14 15 17 17 19 19 19 15 18
5 6 2 5 3 2 5 6 6 14 17 15 14 11 15 13 11 11 15 13 11 9 9 9 9 8 9 7 8 9 8 9 6 6 7 11 11 11 12 12 14 15 17 18 17 15 20 21 19
1 4 2 3 5 6 5 4 5 6 13 15 16 13 11 13 12 10 15 15 13 10 10 10 8 8 10 8 7 8 10 10 8 7 9 7 10 12 12 13 14 15 16 18 17 19 20 21 23
4 3 2 1 3 3 10 8 4 3 7 9 12 14 13 13 12 13 16 15 12 11 11 11 10 9 10 10 8 8 10 9 9 9 9 8 9 12 12 14 16 16 17 19 18 19 19 21 21
5 4 1 2 2 5 1 8 9 13 7 8 8 15 13 12 11 10 13 15 13 12 11 12 12 11 11 11 12 11 12 13 11 10 10 9 10 12 12 15 17 16 15 17 19 20 22 22 22
10 8 4 4 2 3 2 6 5 3 3 6 4 4 12 11 10 9 14 15 16 13 12 11 13 13 12 12 12 11 10 12 11 10 11 11 13 12 12 15 16 16 16 18 18 20 20 20 21
8 11 8 7 2 1 5 7 8 5 2 1 3 8 13 13 11 11 16 18 17 16 14 13 12 13 13 13 12 12 12 13 15 13 14 15 13 12 13 14 16 16 18 18 18 19 19 20 20
4 1 6 3 3 5 6 8 8 5 6 7 6 8 9 10 9 10 14 17 15 16 16 15 13 13 13 14 15 15 15 15 16 15 14 14 14 14 14 15 16 16 17 16 17 18 17 19 18
3 3 6 6 6 3 3 5 3 4 3 9 8 7 9 10 9 8 13 16 16 17 17 17 17 15 14 14 15 16 16 16 17 17 15 14 15 14 14 14 15 15 15 15 16 17 17 19 18
11 16 13 5 5 7 7 12 6 7 7 7 9 9 8 9 9 9 16 18 19 19 18 19 18 18 17 16 17 18 17 17 16 16 15 14 15 14 13 13 13 14 14 14 14 16 15 17 17
Wind_Direction
354 319 313 268 130 221 198 74 65 95 90 32 42 81 90 42 33 117 93 106 121 121 134 142 129 115 108 87 67 43 41 43 43 37 33 31 30 26 23 17 15 19 17 15 16 15 13 10 6
28 334 287 262 260 209 96 113 159 77 89 91 40 103 53 70 71 107 102 123 125 122 136 131 123 123 103 81 56 37 39 44 41 37 32 32 28 25 22 23 23 22 21 21 19 18 14 11 9
39 11 18 37 347 23 76 120 90 87 85 85 94 43 64 59 42 72 119 131 121 119 130 129 125 118 98 73 47 40 43 43 42 35 33 30 28 25 22 22 22 23 22 22 19 21 15 13 9
310 67 14 76 64 50 32 57 109 119 94 10 104 79 83 26 52 119 124 128 111 107 125 124 123 108 86 57 40 42 46 42 37 34 30 28 26 25 25 24 22 23 22 20 22 17 14 12 9
208 155 55 87 21 39 59 26 335 155 113 76 83 75 78 41 110 120 122 125 120 115 122 124 116 99 75 47 39 44 40 34 28 23 21 21 22 23 24 25 25 24 23 23 19 18 12 11 12
119 2 108 117 184 106 77 5 303 82 89 54 94 95 64 50 120 122 129 113 120 122 120 115 105 88 69 51 45 41 36 32 25 23 22 31 30 28 25 27 26 22 24 21 18 14 11 19 18
228 220 66 146 162 123 63 307 1 1 89 28 327 73 89 72 99 111 114 110 111 117 115 104 89 68 68 58 48 42 35 29 27 28 33 33 32 26 22 24 28 28 29 21 19 23 22 15 19
301 77 108 314 157 105 61 71 360 24 63 112 352 111 142 157 96 101 100 106 107 105 102 94 87 87 33 60 55 49 37 31 29 24 33 36 31 40 21 31 36 35 29 25 22 22 20 24 24
317 177 167 170 174 98 28 112 35 46 66 51 30 50 337 137 103 104 104 100 104 103 104 105 93 81 50 49 58 42 39 33 22 20 36 41 26 37 28 28 26 26 20 12 19 14 18 22 29
314 285 120 84 67 74 62 61 63 122 104 94 82 42 44 90 124 120 119 113 106 97 92 82 92 70 85 70 60 47 43 35 15 26 36 47 35 32 27 22 25 18 16 17 18 13 19 23 32
4 354 111 85 32 354 118 75 20 104 71 38 72 48 42 54 66 71 64 77 93 101 92 89 89 91 79 74 55 55 49 35 27 28 48 36 34 33 23 32 40 22 17 13 16 14 20 23 31
145 62 87 119 13 359 61 112 86 54 92 75 91 85 76 55 59 65 75 77 84 106 109 108 93 78 86 74 69 53 40 41 45 34 42 39 36 35 33 35 32 24 18 13 13 15 18 23 30
71 14 100 83 84 70 44 76 112 96 117 115 117 107 97 84 82 70 73 70 89 126 115 108 104 87 80 75 59 62 44 54 49 48 37 40 44 42 38 31 28 22 16 15 14 15 19 22 33
357 79 30 111 81 82 100 121 189 124 122 127 127 100 69 63 22 82 57 101 100 128 133 121 113 105 91 76 70 59 68 60 57 51 45 45 43 42 37 32 28 26 19 18 19 18 19 26 46
41 117 118 18 39 99 138 173 198 140 176 156 133 114 88 64 51 38 32 58 72 124 137 126 108 106 91 80 73 68 65 65 63 53 51 47 41 40 37 36 36 35 29 27 28 27 31 33 47
89 55 155 148 138 155 187 236 148 163 178 161 148 129 125 112 105 83 64 61 65 126 143 139 120 115 111 91 85 85 78 80 61 53 53 47 47 46 46 38 31 33 36 36 35 33 27 26 30
324 126 181 181 197 143 198 266 136 171 208 172 161 163 149 141 133 128 124 114 104 113 132 133 125 122 114 98 84 82 85 76 67 61 59 51 54 51 48 48 40 40 40 39 36 36 32 23 21
163 172 186 217 196 225 222 247 168 187 215 208 179 157 167 164 143 145 148 138 129 130 128 143 132 138 130 113 109 103 92 81 74 67 60 59 52 55 46 46 40 40 34 30 34 37 32 23 11
28 165 197 220 141 270 242 254 211 190 203 224 190 170 174 175 169 161 160 145 134 126 123 116 132 150 141 144 146 138 100 88 82 69 64 55 52 50 56 44 43 50 40 38 31 44 36 26 33
275 181 212 168 95 153 292 277 265 204 203 205 200 181 176 160 184 170 166 159 146 133 128 117 113 121 150 169 127 149 157 120 96 70 62 54 52 53 53 57 52 48 53 44 45 50 54 47 37
224 253 224 247 140 219 295 273 239 241 192 205 212 187 181 179 188 175 172 167 150 138 135 137 125 119 135 156 159 148 140 118 90 65 62 59 51 55 59 61 55 55 55 50 48 52 52 40 51
246 177 271 282 172 260 138 291 250 225 224 198 206 199 185 174 181 172 178 165 157 158 148 146 147 148 156 169 174 167 170 149 120 99 72 61 61 54 63 68 68 64 62 65 56 52 56 55 47
82 83 135 203 250 274 185 274 273 229 220 211 210 205 187 182 181 174 168 167 163 171 157 153 142 146 144 155 174 164 132 138 142 119 97 71 58 58 63 69 75 73 69 71 65 69 68 67 64
105 164 166 286 240 279 217 180 252 197 231 232 208 205 193 181 173 166 163 152 158 174 161 151 151 138 135 145 142 151 149 144 137 124 111 89 73 69 66 78 77 77 79 75 72 76 74 79 73
159 162 308 263 241 237 185 186 246 281 244 222 205 198 188 175 167 158 146 156 166 172 174 159 157 143 149 150 150 152 151 143 137 133 121 113 90 80 79 83 83 79 84 88 77 76 73 77 76
207 198 180 226 233 308 28 243 259 171 80 43 46 222 157 160 158 154 152 172 173 175 178 164 164 154 157 153 153 148 152 150 142 135 134 118 107 100 96 90 87 84 83 88 88 82 72 78 77
183 219 238 316 350 348 239 256 286 93 107 207 206 149 159 157 156 155 162 179 169 171 177 171 174 166 165 157 154 152 157 149 141 135 132 122 113 104 100 97 92 90 90 85 84 86 81 75 76
255 169 207 232 227 241 245 245 243 220 222 185 190 163 154 152 156 158 162 160 169 176 176 177 176 176 167 157 156 158 157 150 141 140 130 131 119 112 104 98 95 92 89 92 88 85 85 85 78
192 231 236 176 213 228 296 259 239 108 109 182 182 182 161 162 157 150 153 168 179 179 177 171 169 169 171 169 161 157 145 140 139 140 135 132 124 116 107 105 103 96 94 94 86 87 88 87 86
231 218 215 209 223 220 252 257 241 170 151 149 175 171 165 160 155 155 163 176 181 182 179 175 174 177 176 171 163 157 151 144 144 140 141 137 124 116 114 114 108 101 97 95 95 97 95 90 87